カタログに戻る

FENGYUN 1C DEB

運用中PO
NORAD 30141·DEBRIS·🇨🇳 China

打ち上げ May 10, 1999 から Taiyuan Satellite Launch Center

Loading…

次のパス (今後24時間)

TLE

最新Source: Space-Track

元期: Sep 14, 2026, 12:51 UTC

1 30141U 99025SW  26257.53607747  .00005581  00000-0  12640-2 0  9999
2 30141  99.0181 205.6043 0014855 293.3599  66.6034 14.56509944 22480

AllMySatでFENGYUN 1C DEBをリアルタイム追跡

Download on the App Store